Location: Dumpton Point
(51.3500°N, 1.4433°E)
Time: 23:08:55
(UTC+00:00)

Tiros 1 despin weight - Pass Details

Date: 23 April 2021
Orbit: 593 x 642 km, 48.2° (Epoch: 07 May)

Event Time Altitude Azimuth Distance (km) Brightness Sun altitude
Exits shadow 02:55:23 - 170° (S) 2,235 ? -14.8°
Reaches altitude 10° 02:56:49 10° 154° (SSE) 2,003 ? -14.7°
Maximum altitude 02:58:08 11° 138° (SE) 1,927 ? -14.5°
Drops below altitude 10° 02:59:27 10° 121° (ESE) 1,998 ? -14.4°
Sets 03:03:27 0° 86° (E) 2,895 ? -13.9°
